Flag for Cook Islands Weather past 2 weeks in Rarotonga, Cook Islands

Now
72 °F

Partly cloudy.


Feels Like: 75 °F
Forecast: 73 / 79 °F
Wind: 7 mph from Southeast

Location: Rarotonga

Current Time: May 22, 2015 at 11:16:12 PM

Latest Report: May 22, 2015 at 10:00 PM


Visibility: N/A

Pressure: 30.09 "Hg

Humidity: 69%

Dew point: 61 °F

Location of RarotongaLocation

Historic Weather in Rarotonga — Graph

°F

Rarotonga temperature yesterday

Maximum temperature yesterday: 77 °F (at 11:00 AM)
Minimum temperature yesterday: 70 °F (at 7:00 PM)
Average temperature yesterday: 73 °F

Past Weeks' High & Low Weather Summary

 TemperatureHumidityPressure
High82 °F (May 12, 2:00 PM)100% (May 17, 9:00 AM)30.09 "Hg (May 17, 9:00 AM)
Low61 °F (May 10, 4:00 AM)51% (May 9, 11:00 AM)29.59 "Hg (May 17, 6:00 AM)
Average73 °F71%29.91 "Hg
* Reported May 7 10:00 PM — May 22 10:00 PM, Rarotonga, Weather by CustomWeather, © 2015

Note: Actual official high and low records may vary slightly from our data, if they occured in-between our weather recording intervals... More about our weather records

Advertising

Rarotonga weather history for previous 24 hours

 ConditionsComfort  
Time TempWeatherWind HumidityBarometerVisibility
10:00 PM
Fri, May 22
72 °FPartly cloudy.7 mph69%30.09 "HgN/A
9:00 PM73 °FPartly cloudy.5 mph65%30.09 "HgN/A
8:00 PM73 °FPartly cloudy.5 mph65%30.07 "HgN/A
7:00 PM72 °FPassing clouds.6 mph65%30.04 "HgN/A
6:00 PM73 °FPassing clouds.7 mph74%30.04 "HgN/A
5:00 PM75 °FPassing clouds.12 mph65%30.01 "HgN/A
4:00 PM77 °FPassing clouds.10 mph57%30.01 "HgN/A
3:00 PM77 °FPassing clouds.12 mph57%29.98 "HgN/A
2:00 PM77 °FPassing clouds.9 mph54%30.01 "HgN/A
1:00 PM77 °FPassing clouds.10 mph54%30.04 "HgN/A
12:00 PM77 °FPassing clouds.12 mph57%30.04 "HgN/A
11:00 AM79 °FPassing clouds.9 mph54%30.04 "HgN/A
10:00 AM75 °FPassing clouds.10 mph65%30.07 "HgN/A
9:00 AM75 °FPassing clouds.6 mph74%30.04 "HgN/A
8:00 AM68 °FPassing clouds.3 mph78%30.04 "HgN/A
7:00 AM64 °FPassing clouds.5 mph83%30.01 "HgN/A
6:00 AM64 °FPassing clouds.3 mph78%30.01 "HgN/A
5:00 AM70 °FPassing clouds.5 mph69%29.98 "HgN/A
4:00 AM68 °FPassing clouds.6 mph73%29.98 "HgN/A
3:00 AM70 °FPassing clouds.7 mph69%29.98 "HgN/A
2:00 AM70 °FPassing clouds.8 mph64%29.98 "HgN/A
1:00 AM70 °FPassing clouds.8 mph69%30.01 "HgN/A
12:00 AM72 °FPassing clouds.8 mph65%30.01 "HgN/A
11:00 PM
Thu, May 21
72 °FPassing clouds.8 mph65%30.01 "HgN/A
Weather by CustomWeather, © 2015

See weather overviewHow to use our weather pages